Location: Balsareny
(41.8670°N, 1.8830°E)
Time: 11:54:53
(UTC+01:00)

Envisat - Pass Details

Date: 02 December 2021
Orbit: 764 x 766 km, 98.2° (Epoch: 16 January)

Event Time Altitude Azimuth Distance (km) Brightness Sun altitude
Rises 04:28:33 0° 34° (NE) 3,239 6.7 -39.0°
Reaches altitude 10° 04:32:15 10° 62° (ENE) 2,306 6.1 -38.3°
Maximum altitude 04:34:32 13° 89° (E) 2,099 5.9 -37.9°
Drops below altitude 10° 04:36:49 10° 116° (ESE) 2,298 6.0 -37.4°
Sets 04:40:29 0° 144° (SE) 3,216 6.6 -36.8°
